User: anonymous   Login
Location: Wawayanda State Park
(41.1833°N, 74.4333°W)
Time: 15:19:24
(UTC-04:00)
Language:

RESURS DK-1 - Orbit

View from above orbital plane
View from above orbital plane
View from above satellite
View from above satellite

Ground track
Ground track

The orbit data is extracted from the following two-line orbital elements,

1 29228U 06021A   17178.89525604 +.00000069 +00000-0 +12629-4 0  9994
2 29228 069.9363 070.8364 0006877 303.7739 056.2765 15.02165416609703
Epoch (UTC): 27 June 2017 21:29:10
Eccentricity: 0.0006877
inclination: 69.9363°
perigee height: 555 km
apogee height: 565 km
right ascension of ascending node: 70.8364°
argument of perigee: 303.7739°
revolutions per day: 15.02165416
mean anomaly at epoch: 56.2765°
orbit number at epoch: 60970

The dashed part of the orbit path shows where the satellite is in the earth's shadow,  

DLR